Location: Arroyo de Valdeoliva
(40.1604°N, 4.9878°W)
Time: 11:30:13
(UTC+00:00)

BlueWalker 3 - Visible Passes

Search period start: 17 February 2026 00:00
Search period end: 27 February 2026 00:00
Orbit: 451 x 461 km, 53.2° (Epoch: 16 February)

Date Brightness Start Highest point End Pass type
(mag) Time Alt. Az. Time Alt. Az. Time Alt. Az.
19 Feb 5.1 06:36:11 10° SSE 06:37:42 12° SE 06:39:14 10° E visible
22 Feb 3.0 06:23:47 10° SSW 06:27:13 44° SE 06:30:40 10° ENE visible
23 Feb 3.5 05:48:09 10° SSW 05:51:24 32° SE 05:54:38 10° ENE visible
24 Feb 3.9 05:13:31 15° S 05:15:35 24° SE 05:18:31 10° ENE visible
25 Feb 4.2 04:39:46 18° SE 04:39:46 18° SE 04:42:15 10° E visible
25 Feb 2.0 06:13:30 11° WSW 06:16:56 51° NW 06:20:27 10° NE visible
26 Feb 1.7 05:39:30 33° WSW 05:40:59 69° NW 05:44:34 10° NE visible
